Flag for U.S.A. Weather past 2 weeks in Paramus, New Jersey, U.S.A.

Now
62 °F

Sunny.


Feels Like: 62 °F
Forecast: 54 / 73 °F
Wind: 8 mph from Northwest

Location: Teterboro Airport

Current Time: May 22, 2015 at 9:49:07 AM

Latest Report: May 22, 2015 at 8:51 AM


Visibility: 10 mi

Pressure: 29.91 "Hg

Humidity: 44%

Dew point: 40 °F

Location of ParamusLocation

Historic Weather in Paramus — Graph

°F

Paramus temperature yesterday

Maximum temperature yesterday: 63 °F (at 3:51 PM)
Minimum temperature yesterday: 51 °F (at 3:51 AM)
Average temperature yesterday: 56 °F

Past Weeks' High & Low Weather Summary

 TemperatureHumidityPressure
High85 °F (May 12, 1:51 PM)100% (May 10, 4:58 AM)30.40 "Hg (May 10, 4:58 AM)
Low48 °F (May 14, 5:51 AM)17% (May 14, 3:51 PM)29.73 "Hg (May 12, 5:51 PM)
Average66 °F61%30.08 "Hg
* Reported May 7 7:51 AM — May 22 7:51 AM, Paramus, Weather by CustomWeather, © 2015

Note: Actual official high and low records may vary slightly from our data, if they occured in-between our weather recording intervals... More about our weather records

Advertising

Paramus weather history for previous 24 hours

 ConditionsComfort  
Time TempWeatherWind HumidityBarometerVisibility
7:51 AM
Fri, May 22
59 °FSunny.10 mph54%29.90 "Hg10 mi
6:51 AM56 °FSunny.5 mph62%29.90 "Hg10 mi
5:51 AM53 °FClear.7 mph66%29.88 "Hg10 mi
4:51 AM56 °FOvercast.6 mph62%29.86 "Hg10 mi
3:51 AM55 °FOvercast.3 mph67%29.85 "Hg10 mi
2:51 AM54 °FOvercast.5 mph69%29.85 "Hg10 mi
1:51 AM54 °FOvercast.3 mph74%29.85 "Hg10 mi
12:51 AM54 °FOvercast.7 mph74%29.87 "Hg10 mi
11:51 PM
Thu, May 21
54 °FOvercast.6 mph74%29.88 "Hg10 mi
10:51 PM54 °FOvercast.6 mph72%29.88 "Hg10 mi
9:51 PM54 °FOvercast.6 mph69%29.90 "Hg10 mi
8:51 PM55 °FOvercast.9 mph64%29.90 "Hg10 mi
7:51 PM56 °FOvercast.9 mph72%29.90 "Hg10 mi
6:51 PM59 °FMore clouds than sun.12 mph60%29.90 "Hg10 mi
5:51 PM60 °FOvercast.10 mph52%29.90 "Hg10 mi
4:51 PM62 °FMore clouds than sun.8 mph41%29.90 "Hg10 mi
3:51 PM63 °FPartly sunny.7 mph38%29.92 "Hg10 mi
2:51 PM62 °FPartly sunny.13 mph38%29.93 "Hg10 mi
1:51 PM61 °FOvercast.13 mph35%29.95 "Hg10 mi
12:51 PM61 °FOvercast.7 mph34%29.96 "Hg10 mi
11:51 AM60 °FOvercast.3 mph35%29.98 "Hg10 mi
10:51 AM60 °FDrizzle. Broken clouds.No wind38%29.99 "Hg10 mi
9:51 AM57 °FOvercast.No wind39%30.00 "Hg10 mi
Weather by CustomWeather, © 2015

See weather overviewHow to use our weather pages